When you browse on this site, cookies collect data to enhance your experience and personalize the content and advertising you see.
Visit our Privacy Policy to learn more. By continuing to use the site, you agree to this use of cookies and data.
  • En España
  • Lista de países
  • Para 7 días
  • Temperatura del agua
  • Mapa Satelital
  • El tiempo en el mapa
  • Informadores
  • user-avatar
    Iniciar sesión

    Tiempo cada hora Demidovka

    Hoy, 20 Julio, Sábado

    Tiempo Temperatura Precipitaciones Viento Presión Humedad
    00:00 +14°C° 0 mm 4 mps 741 mmHg 80%
    01:00 +14°C° 0 mm 4 mps 741 mmHg 82%
    02:00 +13°C° 0 mm 4 mps 742 mmHg 84%
    03:00 +13°C° 0 mm 4 mps 742 mmHg 86%
    04:00 +12°C° 0 mm 4 mps 742 mmHg 88%
    05:00 +12°C° 0 mm 4 mps 743 mmHg 90%
    06:00 +14°C° 0 mm 4 mps 743 mmHg 86%
    07:00 +15°C° 0 mm 4 mps 743 mmHg 81%
    08:00 +18°C° 0 mm 4 mps 743 mmHg 77%
    09:00 +19°C° 0 mm 4 mps 743 mmHg 73%
    10:00 +20°C° 0 mm 4 mps 744 mmHg 70%
    11:00 +21°C° 0 mm 5 mps 744 mmHg 66%
    12:00 +21°C° 0 mm 5 mps 744 mmHg 65%
    13:00 +22°C° 0 mm 5 mps 744 mmHg 64%
    14:00 +23°C° 0 mm 4 mps 744 mmHg 63%
    15:00 +22°C° 0 mm 4 mps 744 mmHg 65%
    16:00 +22°C° 0 mm 4 mps 744 mmHg 67%
    17:00 +22°C° 0 mm 4 mps 745 mmHg 68%
    18:00 +20°C° 0 mm 3 mps 745 mmHg 72%
    19:00 +18°C° 0 mm 3 mps 744 mmHg 76%
    20:00 +16°C° 0 mm 3 mps 744 mmHg 79%
    21:00 +15°C° 0 mm 2 mps 745 mmHg 79%
    22:00 +15°C° 0 mm 2 mps 745 mmHg 79%
    23:00 +14°C° 0 mm 2 mps 745 mmHg 78%

    Mañana, 21 Julio, Domingo

    Tiempo Temperatura Precipitaciones Viento Presión Humedad
    00:00 +13°C° 0 mm 2 mps 745 mmHg 80%
    01:00 +13°C° 0 mm 2 mps 745 mmHg 82%
    02:00 +13°C° 0 mm 2 mps 745 mmHg 85%
    03:00 +13°C° 0 mm 2 mps 746 mmHg 86%
    04:00 +13°C° 0 mm 2 mps 746 mmHg 87%
    05:00 +13°C° 0 mm 2 mps 746 mmHg 89%
    06:00 +15°C° 0 mm 2 mps 746 mmHg 84%
    07:00 +17°C° 0 mm 2 mps 746 mmHg 80%
    08:00 +19°C° 0 mm 2 mps 746 mmHg 76%
    09:00 +20°C° 0 mm 2 mps 746 mmHg 72%
    10:00 +21°C° 0 mm 2 mps 746 mmHg 67%
    11:00 +24°C° 0 mm 2 mps 746 mmHg 63%
    12:00 +24°C° 0 mm 3 mps 746 mmHg 62%
    13:00 +24°C° 0 mm 3 mps 746 mmHg 61%
    14:00 +25°C° 0 mm 3 mps 746 mmHg 60%
    15:00 +25°C° 0 mm 3 mps 746 mmHg 63%
    16:00 +24°C° 0 mm 3 mps 746 mmHg 66%
    17:00 +24°C° 0 mm 3 mps 746 mmHg 69%
    18:00 +21°C° 0 mm 2 mps 745 mmHg 75%
    19:00 +21°C° 0 mm 1 mps 745 mmHg 80%
    20:00 +19°C° 0 mm 1 mps 745 mmHg 86%
    21:00 +16°C° 0 mm 0 mps 745 mmHg 86%
    22:00 +16°C° 0 mm 0 mps 745 mmHg 87%
    23:00 +15°C° 0 mm 0 mps 745 mmHg 87%

    Pasado mañana, 22 Julio, Lunes

    Tiempo Temperatura Precipitaciones Viento Presión Humedad
    00:00 +14°C° 0 mm 0 mps 745 mmHg 87%
    01:00 +14°C° 0 mm 0 mps 745 mmHg 87%
    02:00 +14°C° 0 mm 0 mps 745 mmHg 87%
    03:00 +15°C° 0 mm 1 mps 745 mmHg 87%
    04:00 +15°C° 0 mm 1 mps 745 mmHg 87%
    05:00 +16°C° 0 mm 1 mps 745 mmHg 87%
    06:00 +18°C° 0 mm 1 mps 745 mmHg 84%
    07:00 +19°C° 0 mm 2 mps 744 mmHg 80%
    08:00 +20°C° 0 mm 2 mps 744 mmHg 76%
    09:00 +21°C° 0.2 mm 2 mps 744 mmHg 74%
    10:00 +23°C° 0.2 mm 2 mps 744 mmHg 72%
    11:00 +24°C° 0.2 mm 3 mps 744 mmHg 71%
    12:00 +22°C° 1.2 mm 3 mps 743 mmHg 77%
    13:00 +21°C° 1.2 mm 3 mps 743 mmHg 83%
    14:00 +19°C° 1.2 mm 3 mps 743 mmHg 89%
    15:00 +19°C° 0.6 mm 2 mps 743 mmHg 91%
    16:00 +18°C° 0.6 mm 2 mps 742 mmHg 93%
    17:00 +18°C° 0.6 mm 2 mps 742 mmHg 95%
    18:00 +17°C° 0.1 mm 2 mps 742 mmHg 95%
    19:00 +17°C° 0.1 mm 2 mps 742 mmHg 96%
    20:00 +16°C° 0.1 mm 2 mps 742 mmHg 96%
    21:00 +16°C° 0 mm 2 mps 742 mmHg 96%
    22:00 +16°C° 0 mm 2 mps 742 mmHg 97%
    23:00 +15°C° 0 mm 2 mps 742 mmHg 97%

    23 Julio, Martes

    Tiempo Temperatura Precipitaciones Viento Presión Humedad
    00:00 +15°C° 0 mm 2 mps 741 mmHg 97%
    01:00 +16°C° 0 mm 2 mps 741 mmHg 98%
    02:00 +16°C° 0 mm 1 mps 741 mmHg 98%
    03:00 +16°C° 0.1 mm 1 mps 741 mmHg 98%
    04:00 +16°C° 0.1 mm 1 mps 741 mmHg 98%
    05:00 +16°C° 0.1 mm 1 mps 741 mmHg 98%
    06:00 +18°C° 0.1 mm 1 mps 741 mmHg 97%
    07:00 +18°C° 0.1 mm 1 mps 741 mmHg 96%
    08:00 +17°C° 0.1 mm 2 mps 741 mmHg 95%
    09:00 +17°C° 0.2 mm 2 mps 741 mmHg 95%
    10:00 +17°C° 0.2 mm 3 mps 741 mmHg 94%
    11:00 +18°C° 0.2 mm 3 mps 741 mmHg 93%
    12:00 +18°C° 0.1 mm 3 mps 741 mmHg 92%
    13:00 +18°C° 0.1 mm 4 mps 741 mmHg 91%
    14:00 +18°C° 0.1 mm 4 mps 741 mmHg 89%
    15:00 +18°C° 0.1 mm 4 mps 741 mmHg 90%
    16:00 +18°C° 0.1 mm 4 mps 741 mmHg 91%
    17:00 +17°C° 0.1 mm 4 mps 742 mmHg 92%
    18:00 +17°C° 0 mm 4 mps 742 mmHg 92%
    19:00 +17°C° 0 mm 4 mps 742 mmHg 92%
    20:00 +17°C° 0 mm 4 mps 742 mmHg 92%
    21:00 +16°C° 0 mm 3 mps 742 mmHg 93%
    22:00 +16°C° 0 mm 3 mps 742 mmHg 93%
    23:00 +16°C° 0 mm 3 mps 742 mmHg 93%

    24 Julio, Miércoles

    Tiempo Temperatura Precipitaciones Viento Presión Humedad
    00:00 +16°C° 0 mm 3 mps 742 mmHg 93%
    01:00 +16°C° 0 mm 3 mps 742 mmHg 93%
    02:00 +15°C° 0 mm 4 mps 742 mmHg 93%
    03:00 +14°C° 0 mm 4 mps 743 mmHg 93%
    04:00 +14°C° 0 mm 3 mps 743 mmHg 93%
    05:00 +14°C° 0 mm 3 mps 743 mmHg 93%
    06:00 +16°C° 0 mm 3 mps 743 mmHg 88%
    07:00 +18°C° 0 mm 4 mps 743 mmHg 83%
    08:00 +20°C° 0 mm 4 mps 743 mmHg 77%
    09:00 +21°C° 0 mm 4 mps 744 mmHg 73%
    10:00 +22°C° 0 mm 4 mps 744 mmHg 68%
    11:00 +23°C° 0 mm 4 mps 744 mmHg 64%
    12:00 +23°C° 0 mm 4 mps 744 mmHg 62%
    13:00 +25°C° 0 mm 4 mps 744 mmHg 60%
    14:00 +26°C° 0 mm 4 mps 744 mmHg 58%
    15:00 +25°C° 0.1 mm 3 mps 744 mmHg 61%
    16:00 +25°C° 0.1 mm 3 mps 744 mmHg 65%
    17:00 +25°C° 0.1 mm 3 mps 744 mmHg 69%
    18:00 +23°C° 0 mm 2 mps 744 mmHg 74%
    19:00 +20°C° 0 mm 2 mps 744 mmHg 79%
    20:00 +18°C° 0 mm 2 mps 744 mmHg 85%
    21:00 +17°C° 0 mm 2 mps 745 mmHg 86%
    22:00 +17°C° 0 mm 2 mps 745 mmHg 88%
    23:00 +16°C° 0 mm 2 mps 745 mmHg 90%

    25 Julio, Jueves

    Tiempo Temperatura Precipitaciones Viento Presión Humedad
    00:00 +15°C° 0 mm 2 mps 745 mmHg 91%
    01:00 +15°C° 0 mm 2 mps 745 mmHg 92%
    02:00 +15°C° 0 mm 2 mps 745 mmHg 93%
    03:00 +15°C° 0 mm 2 mps 745 mmHg 93%
    04:00 +14°C° 0 mm 2 mps 745 mmHg 93%
    05:00 +14°C° 0 mm 2 mps 745 mmHg 93%
    06:00 +16°C° 0 mm 3 mps 746 mmHg 88%
    07:00 +18°C° 0 mm 3 mps 746 mmHg 83%
    08:00 +20°C° 0 mm 3 mps 746 mmHg 79%
    09:00 +21°C° 0 mm 3 mps 746 mmHg 73%
    10:00 +22°C° 0 mm 3 mps 746 mmHg 66%
    11:00 +25°C° 0 mm 4 mps 746 mmHg 60%
    12:00 +25°C° 0 mm 4 mps 746 mmHg 59%
    13:00 +26°C° 0 mm 4 mps 746 mmHg 57%
    14:00 +27°C° 0 mm 3 mps 746 mmHg 55%
    15:00 +26°C° 0 mm 3 mps 746 mmHg 59%
    16:00 +26°C° 0 mm 3 mps 746 mmHg 63%
    17:00 +26°C° 0 mm 2 mps 745 mmHg 66%
    18:00 +24°C° 0 mm 2 mps 745 mmHg 70%
    19:00 +21°C° 0 mm 2 mps 745 mmHg 73%
    20:00 +19°C° 0 mm 2 mps 745 mmHg 77%
    21:00 +19°C° 0 mm 2 mps 745 mmHg 80%
    22:00 +18°C° 0 mm 2 mps 745 mmHg 84%
    23:00 +17°C° 0 mm 2 mps 746 mmHg 88%
    Mostrar más